Regional Weather Roundup
Issued by NWS

Home | Current Version | Previous Version | Graphics & Text | Print | Product List | Glossary Off
Versions: 1 2 3 4 5 6 7 8 9 10 11 12 13 14 15 16 17 18 19 20 21 22 23 24 25 26 27 28 29 30 31 32 33 34 35 36 37 38 39 40 41 42 43 44 45 46 47 48 49 50

000
ASUS43 KDTX 172310
RWRMI
MICHIGAN HOURLY REGIONAL WEATHER ROUNDUP
NATIONAL WEATHER SERVICE DETROIT/PONTIAC MI
ISSUED BY NATIONAL WEATHER SERVICE GRAND RAPIDS MI
700 PM EDT THU AUG 17 2017

NOTE: "FAIR" INDICATES FEW OR NO CLOUDS BELOW 12,000 FEET WITH NO
SIGNIFICANT WEATHER AND/OR OBSTRUCTION TO VISIBILITY.

MIZ047>049-052>055-059>063-066>070-074>076-081>083-180000-
SOUTHEAST LOWER MICHIGAN

CITY           SKY/WX    TMP DP  RH WIND       PRES   REMARKS
ADRIAN         SUNNY     83  63  50 SW12G21   29.75S
ALMA           PTSUNNY   78  68  72 SW9G17    29.69R
ANN ARBOR      MOSUNNY   82  72  71 S10G20    29.72F
BAD AXE        MOSUNNY   77  72  83 S10       29.70F
DETROIT CITY   MOSUNNY   79  74  84 S8        29.72F
DETROIT        PTSUNNY   82  74  76 S12       29.73F
FLINT          HVY RAIN  77  72  84 SW10      29.70S
GROSSE ILE     SUNNY     79  74  84 S9        29.72F
HILLSDALE      CLOUDY    79  66  65 SW10G16   29.76S
HOWELL         PTSUNNY   81  69  68 S9G18     29.71S

CITY           SKY/WX    TMP DP  RH WIND       PRES   REMARKS
JACKSON          N/A     81  68  64 S15       29.73S
LANSING        MOSUNNY   79  69  71 SW13G21   29.71S
MASON          PTSUNNY   82  67  60 SW9G16    29.71S
MONROE         MOSUNNY   83  72  70 SW10      29.72F
MT. CLEMENS    PTSUNNY   76  74  95 S10       29.72F
PONTIAC        PTSUNNY   80  72  76 S8        29.71F
PORT HOPE        N/A     74  72  93 SE8       29.67F
PORT HURON     MOSUNNY   77  72  83 S9        29.73S
TRI CITIES     CLOUDY    80  74  81 SW12G17   29.67F
YPSILANTI      LGT RAIN  83  76  79 S10       29.73F HX  91
$$
MIZ043>046-050>051-056>058-064>065-071>073-077>080-180000-
SOUTHWEST LOWER MICHIGAN

CITY           SKY/WX    TMP DP  RH WIND       PRES   REMARKS
BATTLE CREEK   CLOUDY    82  66  58 SW17      29.73S
BENTON HARBOR  CLOUDY    82  65  56 SW21G28   29.73R
BIG RAPIDS     CLOUDY    71  67  86 SW9G16    29.67F
COLDWATER      MOSUNNY   81  67  63 SW13G22   29.74F
HOLLAND        SUNNY     78  68  71 SW14G23   29.71S
GRAND RAPIDS   PTSUNNY   79  68  69 SW17      29.70S
KALAMAZOO      PTSUNNY   82  63  52 W10G25    29.73R
MARSHALL       PTSUNNY   80  69  68 SW9       29.73S
MOUNT PLEASANT MOSUNNY   80  68  67 SW9       29.66S
MUSKEGON       PTSUNNY   76  68  76 SW15      29.68S
STURGIS        CLOUDY    80  68  67 SW13      29.74S
$$
MIZ016>042-180000-
NORTHERN LOWER MICHIGAN

CITY           SKY/WX    TMP DP  RH WIND       PRES   REMARKS
ALPENA         CLOUDY    71  71 100 SE8       29.66F FOG
BEAVER ISLAND  MOSUNNY   77  69  75 SW8       29.58F
BELLAIRE       CLOUDY    75  69  82 S5        29.61S
CADILLAC       PTSUNNY   74  68  80 SW13G18   29.66S
CHARLEVOIX     CLOUDY    77  69  75 S9        29.62F
GAYLORD        CLOUDY    73  69  87 SW8       29.64S
HOUGHTON LAKE  CLOUDY    74  69  85 SW9       29.67F
MANISTEE       CLOUDY    74  68  81 SW14G20   29.61F
OSCODA         MOSUNNY   77  71  83 S10       29.66F
PELLSTON       LGT RAIN  72  71  97 SE7       29.61F FOG
TRAVERSE CITY  CLOUDY    75  70  84 W7        29.59S
LUDINGTON      CLOUDY    73  66  77 SW16G23   29.62F
$$
MIZ007>008-015-180000-
EASTERN UPPER MICHIGAN

CITY           SKY/WX    TMP DP  RH WIND       PRES   REMARKS
KINROSS        LGT RAIN  66  66 100 SE16G22   29.64F FOG
MACKINAC ISLAN CLOUDY    68  68 100 E9        29.61F FOG
NEWBERRY       CLOUDY    67  66  97 E5        29.60F
S. S. MARIE    CLOUDY    66  64  93 E7G17     29.64S
$$
MIZ004>006-011>014-085-180000-
CENTRAL UPPER MICHIGAN

CITY           SKY/WX    TMP DP  RH WIND       PRES   REMARKS
MANISTIQUE     CLOUDY    69  63  81 S6        29.57F HAZE
MENOMINEE      CLOUDY    73  67  81 SW7       29.53F
SAWYER-GWINN   PTSUNNY   70  64  83 S8        29.55S
$$
MIZ001>003-009>011-084-180000-
WESTERN UPPER MICHIGAN

CITY           SKY/WX    TMP DP  RH WIND       PRES   REMARKS
IRON MOUNTAIN  LGT RAIN  69  65  86 S3        29.53S
HOUGHTON       LGT RAIN  65  63  93 CALM      29.54F
COPPER HARBOR    N/A     59  58  96 CALM      29.54S
IRONWOOD       LGT RAIN  59  58  96 NW10G17   29.65R FOG
$$

ABBREVIATIONS USED IN REMARKS
   TC - TEMPERATURE IN CELSIUS
  WCI - WIND CHILL INDEX
   HX - HEAT INDEX
  VSB - VISIBILITY





USA.gov is the U.S. government's official web portal to all federal, state and local government web resources and services.